Location: Gokavaram
(16.9752°N, 81.0696°E)
Time: 10:59:23
(UTC+00:00)

Feng Yun 1-1 Rocket - Pass Details

Date: 15 May 2026
Orbit: 830 x 932 km, 99.0° (Epoch: 8 June)

Event Time Altitude Azimuth Distance (km) Brightness Sun altitude
Exits shadow 15:22:29 62° 296° (WNW) 928 4.5 -31.1°
Drops below altitude 10° 15:27:13 10° 340° (NNW) 2,433 7.2 -32.1°
Sets 15:29:35 0° 343° (NNW) 3,372 8.0 -32.5°
